Japanese version Home page |
Updated on May 10, 2003 |
Profile
|
Orbital ElementsEpoch 2000 Jan. 17.0 TT = JDT 2451560.5 T 2000 Jan. 27.34855 TT Marsden q 5.9218889 (2000.0) P Q z -0.0001445 Peri. 55.10855 +0.70756040 +0.46923450 +/-0.0000094 Node 88.86217 +0.33960438 -0.88150044 e 1.0008554 Incl. 148.09742 +0.61969924 -0.05268740
|
Finding Charts
|
Magnitudes Graphm1 = 6.0 + 5 log d + 10.0 log r
|
The orbital elements are calculated by Dr. Brian G. Marsden and printed on
M.P.E.C. 2000-O22.
|